FW5790 Weather Reports


Display with metric or nautical units.
time (UTC)temp
F
wind
direction
speed
MPH
gust
MPH
rain 1hr
in
rain 24hr
in
rain mn
in
humidity
%
barometer
mb
20260510013053 64 0 0.0 0.0 0.00 0.00 0.00 66 1011.1
20260510011555 65 0 0.0 0.0 0.00 0.00 0.00 65 1011.0
20260510010046 65 0 0.0 0.0 0.00 0.00 0.00 65 1010.6
20260510004550 67 0 0.0 1.0 0.00 0.00 0.00 66 1010.4
20260510003103 68 0 0.0 0.0 0.00 0.00 0.00 64 1010.1
20260510001544 69 0 0.0 0.0 0.00 0.00 0.00 61 1009.8
20260510000047 70 0 0.0 0.0 0.00 0.00 0.00 57 1009.6
20260509234600 72 103 0.0 2.0 0.00 0.00 0.00 55 1009.4
20260509233047 71 102 0.0 0.0 0.00 0.00 0.00 58 1009.4
20260509231552 72 102 1.0 2.0 0.00 0.00 0.00 55 1009.4
20260509230050 72 100 0.0 1.0 0.00 0.00 0.00 60 1009.3
20260509224544 73 99 0.0 2.0 0.00 0.00 0.00 58 1009.1
20260509223051 74 98 1.0 3.0 0.00 0.00 0.00 51 1009.2
20260509221548 74 90 0.0 3.0 0.00 0.00 0.00 50 1009.2
20260509220045 74 102 1.0 2.0 0.00 0.00 0.00 50 1009.3
20260509214544 74 109 0.0 2.0 0.00 0.00 0.00 54 1009.3
20260509213044 74 0 0.0 3.0 0.00 0.00 0.00 52 1009.4
20260509211544 74 96 0.0 1.0 0.00 0.00 0.00 54 1009.4
20260509210052 74 91 1.0 2.0 0.00 0.00 0.00 51 1009.3
20260509204546 75 103 0.0 2.0 0.00 0.00 0.00 53 1009.5
20260509203045 74 0 0.0 2.0 0.00 0.00 0.00 54 1009.5
20260509201543 74 101 0.0 2.0 0.00 0.00 0.00 58 1009.6
20260509200052 74 85 2.0 3.0 0.00 0.00 0.00 55 1009.7
20260509194543 74 0 0.0 2.0 0.00 0.00 0.00 58 1009.9
20260509193050 74 93 1.0 3.0 0.00 0.00 0.00 59 1010.3
20260509191546 74 73 1.0 3.0 0.00 0.00 0.00 55 1010.2
20260509190045 74 94 1.0 2.0 0.00 0.00 0.00 59 1010.2
20260509184542 74 99 0.0 2.0 0.00 0.00 0.00 59 1010.4
20260509183109 73 94 1.0 3.0 0.00 0.00 0.00 61 1010.6
20260509181601 73 83 2.0 4.0 0.00 0.00 0.00 61 1010.3
20260509180042 72 96 1.0 2.0 0.00 0.00 0.00 61 1010.5
20260509174545 73 77 1.0 3.0 0.00 0.00 0.00 66 1010.8
20260509173046 72 89 2.0 4.0 0.00 0.00 0.00 63 1010.7
20260509171544 71 0 1.0 3.0 0.00 0.00 0.00 67 1010.6
20260509170043 71 108 1.0 3.0 0.00 0.00 0.00 65 1010.8
20260509164558 70 116 0.0 3.0 0.00 0.00 0.00 65 1010.8
20260509163045 70 99 1.0 3.0 0.00 0.00 0.00 64 1010.5
20260509161543 70 111 0.0 2.0 0.00 0.00 0.00 66 1010.5
20260509160042 70 78 1.0 2.0 0.00 0.00 0.00 66 1010.6
20260509154551 69 94 1.0 2.0 0.00 0.00 0.00 68 1010.5
20260509153043 68 94 0.0 3.0 0.00 0.00 0.00 70 1010.4
20260509151550 67 97 0.0 2.0 0.00 0.00 0.00 70 1010.3
20260509150046 66 0 0.0 2.0 0.00 0.00 0.00 72 1010.2
20260509144545 65 155 0.0 2.0 0.00 0.00 0.00 71 1010.3
20260509143043 64 93 1.0 2.0 0.00 0.00 0.00 74 1010.1
20260509141543 63 99 0.0 5.0 0.00 0.00 0.00 79 1010.1
20260509140048 61 127 1.0 2.0 0.00 0.00 0.00 79 1009.9
20260509134546 60 221 0.0 1.0 0.00 0.00 0.00 80 1010.0
20260509133046 58 269 1.0 3.0 0.00 0.00 0.00 83 1010.0
20260509131544 57 262 1.0 3.0 0.00 0.00 0.00 84 1010.0
20260509130045 56 257 0.0 3.0 0.00 0.00 0.00 85 1009.8
20260509124543 56 269 0.0 2.0 0.00 0.00 0.00 85 1009.8
20260509123046 56 266 0.0 3.0 0.00 0.00 0.00 86 1009.8
20260509121544 56 257 1.0 3.0 0.00 0.00 0.00 86 1009.8
20260509120050 56 264 1.0 4.0 0.00 0.00 0.00 86 1009.7
20260509114543 55 0 0.0 3.0 0.00 0.00 0.00 86 1009.4
20260509113044 55 354 0.0 3.0 0.00 0.00 0.00 86 1009.1
20260509111551 55 194 0.0 2.0 0.00 0.00 0.00 86 1009.3
20260509110045 55 0 0.0 2.0 0.00 0.00 0.00 86 1009.3
20260509104544 55 0 1.0 3.0 0.00 0.00 0.00 86 1009.1
20260509103044 55 0 0.0 3.0 0.00 0.00 0.00 86 1009.2
20260509101555 56 0 0.0 2.0 0.00 0.00 0.00 86 1009.2
20260509100048 56 0 0.0 2.0 0.00 0.00 0.00 85 1009.3
20260509094545 56 206 0.0 2.0 0.00 0.00 0.00 85 1009.3
20260509093054 56 0 0.0 0.0 0.00 0.00 0.00 85 1009.4
20260509091543 56 187 0.0 2.0 0.00 0.00 0.00 85 1009.6
20260509090051 56 0 0.0 2.0 0.00 0.00 0.00 84 1009.8
20260509084554 56 193 0.0 2.0 0.00 0.00 0.00 83 1009.8
20260509083047 56 195 0.0 2.0 0.00 0.00 0.00 82 1009.5
20260509081544 56 193 0.0 2.0 0.00 0.00 0.00 82 1009.6
20260509080053 56 200 0.0 3.0 0.00 0.00 0.00 80 1009.7
20260509074541 56 0 0.0 1.0 0.00 0.00 0.00 78 1009.8
20260509073046 57 0 0.0 0.0 0.00 0.00 0.00 77 1009.6
20260509071552 57 0 0.0 0.0 0.00 0.00 0.00 76 1009.7
20260509070048 57 0 0.0 0.0 0.00 0.00 0.00 75 1009.9
20260509064554 57 0 0.0 0.0 0.00 0.00 0.00 77 1010.2
20260509063049 58 0 0.0 0.0 0.00 0.00 0.00 76 1010.2
20260509061546 58 0 0.0 0.0 0.00 0.00 0.00 73 1010.2
20260509060047 58 0 0.0 0.0 0.00 0.00 0.00 74 1010.3
20260509054554 58 0 0.0 0.0 0.00 0.00 0.00 73 1010.3
20260509053047 58 0 0.0 0.0 0.00 0.00 0.00 73 1010.3
20260509051557 59 0 0.0 0.0 0.00 0.00 0.00 71 1010.3
20260509050050 59 0 0.0 0.0 0.00 0.00 0.00 71 1010.3
20260509044550 59 0 0.0 0.0 0.00 0.00 0.00 68 1010.2
20260509043044 59 0 0.0 0.0 0.00 0.00 0.00 69 1010.2
20260509041551 59 0 0.0 0.0 0.00 0.00 0.00 69 1010.2
20260509040049 59 0 0.0 0.0 0.00 0.00 0.00 68 1010.2
20260509034546 60 0 0.0 0.0 0.00 0.00 0.00 67 1010.3
20260509033100 61 0 0.0 0.0 0.00 0.00 0.00 65 1010.7
20260509031552 61 0 0.0 2.0 0.00 0.00 0.00 64 1010.7
20260509030044 61 0 0.0 1.0 0.00 0.00 0.00 63 1010.9
20260509024546 61 0 0.0 1.0 0.00 0.00 0.00 62 1010.8
20260509023047 61 0 0.0 1.0 0.00 0.00 0.00 67 1011.1
20260509021550 61 0 0.0 0.0 0.00 0.00 0.00 64 1011.2
20260509020047 61 0 0.0 0.0 0.00 0.00 0.00 64 1011.1
20260509014551 61 0 0.0 0.0 0.00 0.00 0.00 62 1011.1